[Iaude] MPEC C122: 2024 CM2 [a=2.14,e=0.47,i=18.7,H=24.1]

mpec at cfa.harvard.edu mpec at cfa.harvard.edu
Sun Feb 11 20:38:02 EST 2024


M.P.E.C. 2024-C122                            Issued 2024 February 12, 01:36 UT

     The Minor Planet Electronic Circulars contain information on unusual
         minor planets, routine data on comets and natural satellites,
         and occasional editorial announcements.  They are published
    on behalf of Division F of the International Astronomical Union by the
          Minor Planet Center, Smithsonian Astrophysical Observatory,
                          Cambridge, MA 02138, U.S.A.
			  
             Prepared using the Tamkin Foundation Computer Network

                              MPC at CFA.HARVARD.EDU
            URL https://www.minorplanetcenter.net/    ISSN 1523-6714

                                    2024 CM2                                    


Observations:
     K24C02M* C2024 02 10.30235108 09 26.231+09 13 17.35         21.31wXEC122F52
     K24C02M  C2024 02 10.31543808 09 28.966+09 14 57.85         21.30wXEC122F52
     K24C02M  C2024 02 10.32842408 09 31.680+09 16 37.64         21.28wXEC122F52
     K24C02M  C2024 02 10.52554008 10 13.001+09 41 45.91         21.01GVEC122F52
     K24C02M  C2024 02 10.52635908 10 13.188+09 41 52.26         20.70GVEC122F52
     K24C02M  C2024 02 10.52717908 10 13.344+09 41 57.68         20.95GVEC122F52
     K24C02M |C2024 02 11.08814008 12 28.190+10 54 45.70         21.3 GVEC122807
     K24C02M |C2024 02 11.09387008 12 29.410+10 55 30.20         21.3 GVEC122807
     K24C02M |C2024 02 11.09922008 12 30.590+10 56 12.00         21.3 GVEC122807
     K24C02M KB2024 02 11.98301 08 16 00.38 +12 49 03.6          21.2 GVEC122204
     K24C02M KB2024 02 12.00633 08 16 05.73 +12 52 03.9                VEC122204

Observer details:
204 Schiaparelli Observatory.  Observer L. Buzzi.  0.84-m f/3.5 reflector +
    CMO.
807 Cerro Tololo Observatory, La Serena.  Observers T. Linder, R. Holmes.
    0.61-m f/11 Ritchey-Chretien + CCD.
F52 Pan-STARRS 2, Haleakala.  Observers J. Herman, T. Lowe, P. Minguez, A.
    Schultz, I. Smith.  Measurers K. Chambers, T. de Boer, J. Fairlamb, H.
    Gao, M. Huber, C.-C. Lin, E. Magnier, Y. Ramanjooloo, R. Wainscoat, R.
    Weryk.  1.8-m Ritchey-Chretien + CCD.

Orbital elements:
2024 CM2                                                 Earth MOID = 0.1457 AU
Epoch 2023 Sept. 13.0 TT = JDT 2460200.5                MPC                     
M 312.35558              (2000.0)            P               Q                  
n   0.31436894     Peri.  356.68835     -0.75982690     -0.62026191             
a   2.1421159      Node   142.59756     +0.60360471     -0.78434461             
e   0.4707580      Incl.   18.70338     +0.24150453     +0.00887111             
P   3.14           H   24.17          G   0.15           U   9                  
Residuals in seconds of arc
240210 F52  0.2-  0.4+    240210 F52  0.2+  0.2+    240211 807  0.1+  0.3+
240210 F52  0.2-  0.4+    240210 F52  0.1-  0.6-    240211 204  0.3-  0.0
240210 F52  0.1-  0.5+    240211 807  0.0   0.3-    240212 204  0.2+  0.1-
240210 F52  0.0   0.1+    240211 807  0.2-  0.1-

Ephemeris:
2024 CM2                 a,e,i = 2.14, 0.47, 19                  q = 1.1337
Date    TT    R. A. (2000) Decl.     Delta      r    Elong.  Phase     V
2024 01 13    07 08 35.2 -26 00 51   0.2679  1.1794   131.9    38.4    23.2
...
2024 01 28    07 30 36.5 -13 58 36   0.1923  1.1451   143.5    30.8    22.2
...
2024 02 05    07 51 10.6 -01 26 51   0.1651  1.1360   153.5    22.8    21.6
...
2024 02 11    08 12 06.0 +10 42 44   0.1554  1.1337   159.4    17.8    21.3
2024 02 12    08 16 05.3 +12 51 41   0.1549  1.1337   159.8    17.5    21.3
2024 02 13    08 20 13.1 +15 01 03   0.1547  1.1338   159.9    17.4    21.3
...
2024 02 19    08 47 52.3 +27 27 28   0.1605  1.1366   155.7    20.9    21.5
...
2024 02 27    09 30 25.5 +40 20 28   0.1846  1.1464   145.1    29.6    22.1
...
2024 03 13    10 48 35.7 +51 00 23   0.2612  1.1820   131.1    39.4    23.2

A. U. Tomatic                (C) Copyright 2024 MPC           M.P.E.C. 2024-C122





More information about the Iaude mailing list